Regional Weather Roundup
Issued by NWS

Home | Current Version | Previous Version | Graphics & Text | Print | Product List | Glossary On
Versions: 1 2 3 4 5 6 7 8 9 10 11 12 13 14 15 16 17 18 19 20 21 22 23 24 25 26 27 28 29 30 31 32 33 34 35 36 37 38 39 40 41 42 43 44 45 46 47 48 49 50
000
ASUS43 KLSX 281057
RWRMO

WEATHER SUMMARY FOR MISSOURI
NATIONAL WEATHER SERVICE SPRINGFIELD MO
600 AM CDT TUE MAR 28 2017

NOTE: "FAIR" INDICATES FEW OR NO CLOUDS BELOW 12,000 FEET WITH NO
       SIGNIFICANT WEATHER AND/OR OBSTRUCTIONS TO VISIBILITY.
       CURRENT SKY AND/OR WEATHER CONDITIONS ARE NOT AVAILABLE FOR
       CHILLICOTHE AND FARMINGTON.

MOZ001>031-035>038-043-044-053-054-281200-
...NORTHERN AND WESTERN MISSOURI...

CITY           SKY/WX    TMP DP  RH WIND       PRES   REMARKS
KANSAS CTY INT CLOUDY    48  47  96 NE7       30.02R
KANSAS C DTWN  CLOUDY    48  46  93 NE7       30.02R
LEE`S SUMMIT   CLOUDY    48  47  96 NE6       30.02R
ST JOSEPH      CLOUDY    48  45  89 E5        30.04R
CHILLICOTHE      N/A     48  45  89 N3        30.04S
KIRKSVILLE     CLOUDY    47  46  97 N3        30.05R FOG

$$
MOZ066>068-077>081-088>096-101>105-281200-
...SOUTHWEST MISSOURI...

CITY           SKY/WX    TMP DP  RH WIND       PRES   REMARKS
SPRINGFIELD    CLOUDY    50  49  96 CALM      30.00R
JOPLIN         CLOUDY    51  50  96 NE3       30.01R

$$
MOZ032>034-039>042-045>050-055>058-069>072-281200-
...CENTRAL MISSOURI...

CITY           SKY/WX    TMP DP  RH WIND       PRES   REMARKS
COLUMBIA       CLOUDY    50  48  93 NE7       30.02R FOG
JEFFERSON CITY CLOUDY    54  49  83 NE5       30.02R
ROLLA          CLOUDY    51  51 100 NE8       30.00R
SEDALIA        CLOUDY    50  49  96 N9        30.03R FOG
WARRENSBURG    CLOUDY    46  46 100 N5        30.02R FOG

$$
MOZ051-052-059>065-281200-
...EAST CENTRAL MISSOURI...

CITY           SKY/WX    TMP DP  RH WIND       PRES   REMARKS
ST LOUIS INTL  DRIZZLE   53  50  89 NW8       30.02R
ST CHARLES     CLOUDY    52  50  93 N5        30.02R

$$
MOZ072>076-082>087-097>100-106>115-281200-
...SOUTH CENTRAL AND SOUTHEAST MISSOURI...

CITY           SKY/WX    TMP DP  RH WIND       PRES   REMARKS
CAPE GIRARDEAU CLOUDY    55  51  86 N9        29.98R
POPLAR BLUFF   CLOUDY    54  52  93 CALM      29.99R
WEST PLAINS    CLOUDY    53  50  89 N3        30.00R

$$


USA.gov is the U.S. government's official web portal to all federal, state and local government web resources and services.